User: anonymous   Login
Location: �couen
(49.0206°N, 2.3831°E)
Time: 20:26:41
(UTC+00:00)
Language:

Cosmos 1602 Rocket - Orbit

View from above orbital plane
View from above orbital plane
View from above satellite
View from above satellite

Ground track
Ground track

The orbit data is extracted from the following two-line orbital elements,

1 15332U 84105B   22016.86171850  .00000229  00000-0  24863-4 0  9999
2 15332  82.5334  62.4723 0019686 245.4751 288.1189 14.83508544993766
Epoch (UTC): 16 January 2022 20:40:52
Eccentricity: 0.0019686
inclination: 82.5334°
perigee height: 604 km
apogee height: 632 km
right ascension of ascending node: 62.4723°
argument of perigee: 245.4751°
revolutions per day: 14.83508544
mean anomaly at epoch: 288.1189°
orbit number at epoch: 99376

The dashed part of the orbit path shows where the satellite is in the earth's shadow,  

DLR